Regional Weather Roundup
Issued by NWS

Home | Current Version | Previous Version | Graphics & Text | Print | Product List | Glossary On
Versions: 1 2 3 4 5 6 7 8 9 10 11 12 13 14 15 16 17 18 19 20 21 22 23 24 25 26 27 28 29 30 31 32 33 34 35 36 37 38 39 40 41 42 43 44 45 46 47 48 49 50
076
ASUS43 KIND 080109
RWRIN

WEATHER ROUNDUP FOR INDIANA
NATIONAL WEATHER SERVICE INDIANAPOLIS IN
800 PM EST SUN FEB 07 2016

NOTE: "FAIR" INDICATES FEW OR NO CLOUDS BELOW 12,000 FEET WITH NO
SIGNIFICANT WEATHER AND/OR OBSTRUCTIONS TO VISIBILITY.

* - STATION DOES NOT REPORT WEATHER SUCH AS PRECIPITATION OR FOG.

+ - STATION NOT QUALITY CONTROLLED BY THE NATIONAL WEATHER SERVICE.
    USE DATA WITH CAUTION...ESPECIALLY DEWPOINT AND RELATIVE
    HUMIDITY OBSERVATIONS.

INZ001>003-010>013-019-020-080200-
NORTHWEST INDIANA

CITY           SKY/WX    TMP DP  RH WIND       PRES   REMARKS
GARY /AIRPORT/ PTCLDY    41  30  65 SW8       29.77S
LA PORTE +     PTCLDY    40  34  78 SW8       29.76F
MICHIGAN CITY+ PTCLDY    36  32  87 SW6       29.76F
MONTICELLO +   PTCLDY    39  30  70 W9        29.80S
RENSSELAER +   CLEAR     37  32  81 W9        29.80S
VALPARAISO     CLEAR     39  32  76 SW12      29.77F

$$

LMZ046-743>745-080200-
SOUTHERN LAKE MICHIGAN

STATION/POSITION TIME  TEMP    WIND        PRES    WAVE
                       AIR SEA DIR/SP/G            HT
                 (UTC) (F)     (DEG/KT/KT) (MB)    (FT)
BURNS HARBOR     0000   42     220/ 12/ 15 1008.5S
MICHIGAN CITY    0000   41     210/ 19/ 21   N/A

$$

INZ004-005-014>016-021>024-080200-
NORTH CENTRAL INDIANA

CITY           SKY/WX    TMP DP  RH WIND       PRES   REMARKS
GOSHEN         CLEAR     37  31  78 SW8       29.76S
LOGANSPORT +   PTCLDY    37  30  75 W12       29.81S
PERU/GRISSOM   PTCLDY    38  33  82 W10       29.78S
ROCHESTER +    PTCLDY    41  32  70 W7        29.79S
SOUTH BEND     PTCLDY    38  31  76 SW9       29.76S
WARSAW +       PTCLDY    39  32  75 SW8       29.77S

$$

INZ006>009-017-018-025>027-080200-
NORTHEAST INDIANA

CITY           SKY/WX    TMP DP  RH WIND       PRES   REMARKS
ANGOLA *+      MOCLDY    43  34  70 W9        29.75F
AUBURN +       CLOUDY    43  32  65 SW9       29.77F
FORT WAYNE     CLOUDY    42  33  70 W9        29.79S
HUNTINGTON +   CLOUDY    43  29  57 W10       29.78F

$$

INZ028-029-035-036-043>045-051>053-080200-
WEST CENTRAL INDIANA

CITY           SKY/WX    TMP DP  RH WIND       PRES   REMARKS
GREENCASTLE +  PTCLDY    43  27  52 W7        29.83S
LAFAYETTE      CLEAR     40  32  73 W8        29.81S
TERRE HAUTE    PTCLDY    45  31  58 W7        29.85R

$$

INZ030>032-037>040-046>048-054>057-064-065-080200-
CENTRAL INDIANA

CITY           SKY/WX    TMP DP  RH WIND       PRES   REMARKS
FISHERS *+     CLOUDY    46  32  57 W5        29.80
FRANKFORT +    PTCLDY    38  27  63 W9        29.82F
GREENWOOD *+   CLOUDY    48  32  53 SW5       29.81F
INDIANAPOLIS   CLOUDY    46  28  49 SW9       29.80F
-EAGLE CREEK   PTCLDY    45  30  55 W12G18    29.81S
KOKOMO *+        N/A     39  30  70 W8        29.80S
MARION +       CLOUDY    42  26  52 W10       29.80F
MT COMFORT *+  CLOUDY    46  30  53 SW8       29.81F
SHELBYVILLE    CLOUDY    47  29  49 SW9       29.81F
ZIONSVILLE +   PTCLDY    42  32  67 W10       29.81S

$$

INZ033-034-041-042-049-050-058-059-080200-
EAST CENTRAL INDIANA

CITY           SKY/WX    TMP DP  RH WIND       PRES   REMARKS
MUNCIE         CLOUDY    49  29  46 SW7       29.79F

$$

INZ060-061-067>069-081>083-085>088-080200-
SOUTHWEST INDIANA

CITY           SKY/WX    TMP DP  RH WIND       PRES   REMARKS
EVANSVILLE     CLOUDY    51  29  42 SW13      29.88S
HUNTINGBURG *+ CLOUDY    48  28  46 SW12      29.87S
WASHINGTON +   MOCLDY    46  30  52 SW8       29.84F

$$

INZ062-063-066-070>080-084-089>092-080200-
SOUTH CENTRAL AND SOUTHEAST INDIANA

CITY           SKY/WX    TMP DP  RH WIND       PRES   REMARKS
BEDFORD +      CLOUDY    48  27  43 S6        29.84
BLOOMINGTON    CLOUDY    49  27  42 SW7       29.82F
MADISON *+     CLOUDY    43  23  45 S7        29.88F
NORTH VERNON + CLOUDY    48  25  40 CALM      29.85
SEYMOUR +      MOCLDY    45  30  57 S8        29.84F

$$





USA.gov is the U.S. government's official web portal to all federal, state and local government web resources and services.